EW6143 Weather Reports


time (UTC)temp
C
wind
direction
speed
KPH
gust
KPH
rain 1hr
cm
rain 24hr
cm
rain mn
cm
humidity
%
barometer
mb
20260508130035 16 257 0.0 4.8 0.00 0.00 0.00 83 1014.9
20260508124530 16 0 0.0 3.2 0.00 0.00 0.00 83 1015.1
20260508123029 16 0 0.0 0.0 0.00 0.00 0.00 83 1014.9
20260508121529 16 0 0.0 0.0 0.00 0.00 0.00 83 1015.0
20260508120028 16 0 0.0 1.6 0.00 0.00 0.00 83 1015.0
20260508114527 16 0 0.0 9.7 0.00 0.00 0.00 83 1014.9
20260508113030 16 279 3.2 9.7 0.00 0.00 0.00 83 1014.7
20260508111527 16 0 0.0 3.2 0.00 0.00 0.00 83 1015.2
20260508110030 16 0 0.0 9.7 0.00 0.00 0.00 83 1015.3
20260508104550 16 88 1.6 6.4 0.00 0.00 0.00 83 1015.2
20260508103037 16 0 0.0 0.0 0.00 0.00 0.00 83 1014.1
20260508101527 16 336 0.0 1.6 0.00 0.00 0.00 82 1014.0
20260508100027 16 0 0.0 4.8 0.00 0.00 0.00 82 1014.0
20260508094526 16 0 0.0 0.0 0.00 0.00 0.00 82 1014.1
20260508093030 16 0 0.0 4.8 0.00 0.00 0.00 81 1014.1
20260508091527 16 0 0.0 6.4 0.00 0.00 0.00 81 1014.3
20260508090031 16 0 0.0 11.3 0.00 0.00 0.00 81 1014.4
20260508084527 16 281 4.8 12.9 0.00 0.00 0.00 82 1014.1
20260508083027 16 293 0.0 4.8 0.00 0.00 0.00 82 1014.9
20260508081528 16 0 0.0 3.2 0.00 0.00 0.00 82 1015.2
20260508080029 16 0 0.0 0.0 0.00 0.00 0.00 82 1016.0
20260508074529 16 0 0.0 0.0 0.00 0.00 0.00 81 1015.5
20260508073028 16 0 0.0 0.0 0.00 0.00 0.00 81 1015.1
20260508071529 15 0 0.0 0.0 0.00 0.00 0.00 81 1015.1
20260508070128 16 0 0.0 0.0 0.00 0.00 0.00 80 1015.3
20260508064533 16 0 0.0 0.0 0.00 0.00 0.00 80 1015.7
20260508063028 16 0 0.0 0.0 0.00 0.00 0.00 80 1015.8
20260508061527 16 0 0.0 0.0 0.00 0.00 0.00 79 1015.9
20260508060030 16 0 0.0 0.0 0.00 0.00 0.00 78 1015.7
20260508054529 16 0 0.0 0.0 0.00 0.00 0.00 77 1015.8
20260508053030 16 0 0.0 0.0 0.00 0.00 0.00 77 1016.0
20260508051528 16 0 0.0 0.0 0.00 0.00 0.00 76 1015.9
20260508050028 16 0 0.0 0.0 0.00 0.00 0.00 75 1016.0
20260508044529 16 0 0.0 0.0 0.00 0.00 0.00 73 1016.0
20260508043049 16 0 0.0 0.0 0.00 0.00 0.00 72 1015.8
20260508041533 17 0 0.0 0.0 0.00 0.00 0.00 72 1015.9
20260508040031 17 0 0.0 0.0 0.00 0.00 0.00 71 1015.7
20260508034530 17 0 0.0 0.0 0.00 0.00 0.00 71 1015.8
20260508033028 17 0 0.0 0.0 0.00 0.00 0.00 70 1015.7
20260508031526 17 0 0.0 1.6 0.00 0.00 0.00 69 1015.8
20260508030042 17 0 0.0 3.2 0.00 0.00 0.00 68 1015.7
20260508024533 18 0 0.0 3.2 0.00 0.00 0.00 68 1015.6
20260508023030 18 0 0.0 3.2 0.00 0.00 0.00 67 1015.6
20260508021533 18 0 0.0 3.2 0.00 0.00 0.00 66 1015.4
20260508020028 18 304 1.6 3.2 0.00 0.00 0.00 67 1015.2
20260508014529 18 304 0.0 1.6 0.00 0.00 0.00 67 1015.5
20260508013028 18 0 0.0 4.8 0.00 0.00 0.00 66 1015.3
20260508011529 18 304 1.6 6.4 0.00 0.00 0.00 66 1015.3
20260508010028 19 335 3.2 6.4 0.00 0.00 0.00 65 1015.2
20260508004531 19 342 3.2 11.3 0.00 0.00 0.00 64 1015.3
20260508003030 19 296 1.6 6.4 0.00 0.00 0.00 64 1015.1
20260508001529 19 338 3.2 9.7 0.00 0.00 0.00 64 1015.3
20260508000029 20 348 4.8 11.3 0.00 0.00 0.00 63 1015.4
20260507234536 20 267 3.2 14.5 0.00 0.00 0.00 63 1015.2
20260507233030 20 285 6.4 16.1 0.00 0.00 0.00 63 1015.1
20260507231529 20 280 4.8 16.1 0.00 0.00 0.00 62 1015.4
20260507230031 21 324 3.2 16.1 0.00 0.00 0.00 61 1015.4
20260507224528 22 213 1.6 9.7 0.00 0.00 0.00 50 1015.3
20260507223029 22 247 3.2 8.0 0.00 0.00 0.00 51 1015.4
20260507221529 22 244 6.4 12.9 0.00 0.00 0.00 49 1015.5
20260507220029 22 238 4.8 11.3 0.00 0.00 0.00 49 1015.5
20260507214527 23 218 4.8 11.3 0.00 0.00 0.00 46 1015.7
20260507213029 23 157 3.2 9.7 0.00 0.00 0.00 47 1015.8
20260507211527 22 187 6.4 14.5 0.00 0.00 0.00 45 1016.0
20260507210028 23 225 6.4 14.5 0.00 0.00 0.00 46 1016.1
20260507204530 23 194 3.2 12.9 0.00 0.00 0.00 46 1016.0
20260507203030 23 170 6.4 12.9 0.00 0.00 0.00 46 1016.2
20260507201535 23 171 4.8 12.9 0.00 0.00 0.00 47 1016.4
20260507200029 23 161 1.6 11.3 0.00 0.00 0.00 48 1016.6
20260507194532 23 13 1.6 12.9 0.00 0.00 0.00 48 1016.8
20260507193032 24 196 6.4 16.1 0.00 0.00 0.00 46 1017.0
20260507191530 23 172 3.2 16.1 0.00 0.00 0.00 47 1017.2
20260507190030 22 139 8.0 19.3 0.00 0.00 0.00 51 1017.3
20260507184529 22 194 9.7 16.1 0.00 0.00 0.00 52 1017.5
20260507183037 21 191 9.7 19.3 0.00 0.00 0.00 51 1017.7
20260507181530 21 222 6.4 14.5 0.00 0.00 0.00 53 1017.9
20260507180027 21 165 6.4 19.3 0.00 0.00 0.00 53 1018.2
20260507174534 21 220 6.4 17.7 0.00 0.00 0.00 54 1018.2
20260507173034 20 202 9.7 19.3 0.00 0.00 0.00 52 1018.5
20260507171531 21 140 3.2 14.5 0.00 0.00 0.00 54 1019.0
20260507170028 20 190 6.4 12.9 0.00 0.00 0.00 56 1019.3
20260507164528 19 148 4.8 14.5 0.00 0.00 0.00 57 1019.6
20260507163031 19 175 6.4 14.5 0.00 0.00 0.00 58 1019.9
20260507161527 19 173 6.4 14.5 0.00 0.00 0.00 58 1019.8
20260507160033 19 166 4.8 12.9 0.00 0.00 0.00 58 1019.8
20260507154530 19 173 1.6 14.5 0.00 0.25 0.00 60 1019.9
20260507153031 18 211 4.8 12.9 0.00 0.25 0.00 62 1019.9
20260507151527 17 0 4.8 11.3 0.00 0.25 0.00 64 1020.1
20260507150029 17 156 4.8 11.3 0.00 0.25 0.00 65 1020.2
20260507144528 16 142 4.8 11.3 0.00 0.25 0.00 68 1020.3
20260507143053 15 0 1.6 9.7 0.00 0.25 0.00 71 1020.2
20260507141543 15 144 3.2 9.7 0.00 0.25 0.00 75 1020.4
20260507140028 14 153 1.6 8.0 0.00 0.25 0.00 81 1020.7
20260507134529 13 113 1.6 6.4 0.00 0.25 0.00 83 1020.7
20260507133034 12 0 0.0 4.8 0.00 0.25 0.00 85 1020.7
20260507131527 12 0 0.0 8.0 0.00 0.25 0.00 86 1020.6